Location: Complexul Astronomic Baia Mare
(47.6577°N, 23.5639°E)
Time: 05:44:46
(UTC+03:00)

ISS - Pass Details

Date: 20 March 2017
Orbit: 399 x 409 km, 51.6° (Epoch: 30 March)

Event Time Altitude Azimuth Distance (km) Brightness Sun altitude
Exits shadow 03:20:52 11° 78° (ENE) 1,403 -0.4 -30.2°
Drops below altitude 10° 03:21:03 10° 80° (E) 1,476 -0.3 -30.2°
Sets 03:23:13 0° 87° (E) 2,338 0.8 -29.9°
